Torna al catalogo

STARLINK-30149

AttivoComunicazioniVLEO
NORAD 57516·PAYLOAD·🇺🇸 United States

Lanciato Aug 7, 2023 da Cape Canaveral Space Force Station

Loading…

Prossimi Passaggi (prossime 24 ore)

TLE

AggiornatoSource: CelesTrak SupGP

Epoca: Sep 15, 2026, 01:41 UTC

1 57516C 23113X   26258.07062500 -.00091186  00000+0 -33028-2 0  2589
2 57516  43.0041  26.4134 0002195 271.8222 321.7486 15.27621491    19

Traccia STARLINK-30149 in tempo reale con AllMySat

Download on the App Store